Location: Bingarten
(49.8599°N, 12.0007°E)
Time: 02:38:11
(UTC+00:00)

Daily predictions for brighter satellites

Satellite Brightness Start Highest point End
(mag) Time Altitude Azimuth Time Altitude Azimuth Time Altitude Azimuth
CZ-4C R/B 4.5 02:12:26 21° NNE 02:12:26 21° NNE 02:14:53 10° NE
SL-16 R/B 4.4 02:18:24 20° ESE 02:18:24 20° ESE 02:20:17 10° ESE
Cosmos 2322 Rocket 4.2 02:23:47 24° E 02:23:47 24° E 02:26:26 10° ESE
ATLAS 2AS CENTAUR R/B 3.4 02:28:19 53° ENE 02:28:19 53° ENE 02:34:13 10° ESE
Lacrosse 5 3.7 02:57:41 27° NE 02:57:41 27° NE 03:00:04 10° NE
USA 234 3.7 02:49:27 10° ENE 02:54:47 52° NNE 02:54:47 52° NNE
Cosmos 2219 Rocket 4.4 02:54:23 15° N 02:56:22 18° NE 03:00:08 10° ENE
SJ 16-02 4.0 03:04:04 14° NNE 03:04:04 14° NNE 03:04:46 10° NNE
Cosmos 2333 Rocket 4.3 03:02:35 16° N 03:04:59 21° NE 03:09:13 10° E
Lacrosse 5 rocket 4.0 03:14:38 16° ENE 03:14:38 16° ENE 03:15:29 10° E
MSX 4.1 03:08:27 10° NNE 03:14:12 66° ESE 03:14:22 65° ESE
COSMOS 2455 3.6 03:16:30 43° SSE 03:16:30 43° SSE 03:20:23 10° SSE
CZ-2C R/B 3.5 03:11:05 10° NNE 03:15:40 41° E 03:16:09 40° ESE
PAYLOAD A 4.5 03:20:03 10° NNE 03:25:25 64° ESE 03:26:48 47° SSE
Cosmos 2082 Rocket 3.4 03:30:54 30° N 03:30:54 30° N 03:34:02 10° NNE
ATLAS CENTAUR R/B 2.8 03:28:11 40° SE 03:28:41 41° ESE 03:33:09 10° NE
Cosmos 2173 Rocket 4.5 03:25:01 10° S 03:31:05 58° E 03:37:08 10° NNE
Cosmos 1153 Rocket 4.3 03:31:40 78° SSW 03:32:06 87° W 03:38:18 10° N
Cosmos 1833 Rocket 4.3 03:37:12 22° N 03:37:12 22° N 03:39:42 10° NNE
SL-4 R/B 3.5 03:36:54 36° SSE 03:36:54 36° SSE 03:40:00 10° SE
NOSS 3-4 (A) 3.7 03:36:44 58° NW 03:38:20 86° SW 03:45:59 10° SE
NOSS 3-4 (C) 3.7 03:36:49 58° NW 03:38:26 86° SW 03:46:05 10° SE
Cosmos 1151 Rocket 3.7 03:40:44 49° NE 03:41:15 53° ENE 03:45:30 10° SSE
Cosmos 2237 4.5 03:44:05 37° N 03:46:19 65° ENE 03:51:59 10° SE
STARLINK-21 4.5 03:47:21 47° SE 03:47:21 47° SE 03:50:58 10° ENE
STARLINK-45 4.3 03:49:15 51° ESE 03:49:15 51° ESE 03:52:52 10° ENE
NOSS 3-3 (A) 3.9 03:48:21 64° W 03:49:02 69° NW 03:55:53 10° NE
NOSS 3-3 (C) 3.9 03:48:27 64° W 03:49:08 69° NW 03:55:59 10° NE
CZ-4B R/B 4.4 03:46:10 10° NNE 03:50:40 65° ESE 03:54:34 13° S
Gbstr 26 Del rocket 3.6 03:51:51 45° ENE 03:51:51 45° ENE 03:54:31 10° ENE
STARLINK-76 4.3 03:52:08 51° SE 03:52:08 51° SE 03:55:57 10° ENE
Cosmos 2360 Rocket 2.3 03:50:28 39° NNW 03:52:41 74° ENE 03:58:21 10° SE
STARLINK 4.2 03:53:43 53° SE 03:53:43 53° SE 03:57:35 10° ENE
COSMOS 2487 3.8 03:55:00 38° ENE 03:55:00 38° ENE 03:57:34 10° NE
STARLINK-32 4.1 03:55:18 54° SE 03:55:18 54° SE 03:59:15 10° ENE
Cosmos 1328 Rocket 3.5 03:55:27 78° E 03:55:27 78° E 03:59:43 10° SSE
IDEFIX/ARIANE 42P 4.1 03:51:39 10° N 03:53:43 23° N 03:53:43 23° N
STARLINK-40 4.1 03:56:54 56° SE 03:56:54 56° SE 04:00:54 10° ENE
COSMOS 2428 4.1 03:53:17 15° NNW 03:57:28 35° NE 04:02:41 10° ESE
Cosmos 2237 Rocket 4.3 03:53:31 10° N 03:57:37 20° NE 04:01:42 10° E
Okean O Rocket 4.2 03:54:45 10° NE 03:58:06 21° E 04:01:28 10° SE
STARLINK-44 4.0 03:58:30 57° SSE 03:58:30 57° SSE 04:02:35 10° ENE
CZ-4C R/B 3.9 03:57:37 22° NNW 03:59:23 25° N 04:05:04 10° NE
SL-16 R/B 2.6 04:00:20 44° SW 04:00:20 44° SW 04:04:49 10° S
STARLINK-36 4.0 04:00:07 58° SSE 04:00:10 58° SSE 04:04:16 10° ENE
Cosmos 1515 Rocket 4.1 03:58:32 19° N 04:01:28 57° ENE 04:05:44 10° SSE
STARLINK-61 3.7 04:01:48 71° E 04:01:48 71° E 04:05:31 10° ENE
BREEZE-M DEB (TANK) 4.2 03:57:36 35° W 04:02:40 61° SW 04:07:13 10° SE
STARLINK-80 4.0 04:04:28 53° NE 04:04:28 53° NE 04:07:38 10° ENE
Cosmos 1048 Rocket 4.0 04:02:41 31° NNW 04:05:21 83° ENE 04:10:41 10° SSE
Cosmos 2322 Rocket 2.3 04:05:40 51° WSW 04:05:40 51° WSW 04:11:01 10° S
Cosmos 2151 3.5 04:07:26 46° N 04:07:26 46° N 04:10:33 10° N
SKYMED 2 3.8 04:02:02 10° SSE 04:06:19 67° ENE 04:09:18 20° N
STARLINK-35 3.8 04:06:30 61° S 04:06:48 63° SSE 04:10:54 10° ENE
STARLINK-26 3.6 04:07:18 69° S 04:07:27 70° SSE 04:11:32 10° ENE
STARLINK-51 3.8 04:08:05 61° S 04:08:28 65° SSE 04:12:34 10° ENE
Cosmos 1459 Rocket 3.9 04:03:17 10° SSW 04:09:30 79° W 04:15:53 10° N
STARLINK-30 3.7 04:09:41 61° S 04:10:06 66° SSE 04:14:14 10° ENE
COBE Rocket 3.8 04:05:15 10° S 04:10:21 72° W 04:13:10 26° NNW
H-2A R/B 3.4 04:06:24 10° N 04:09:24 38° NNW 04:09:24 38° NNW
STARLINK-43 3.9 04:11:20 50° NNE 04:11:20 50° NNE 04:14:34 10° ENE
STARLINK-33 3.7 04:11:18 60° SSW 04:11:48 68° SSE 04:15:56 10° ENE
STARLINK-50 3.7 04:12:54 60° SSW 04:13:26 69° SSE 04:17:35 10° ENE
STARLINK-46 4.2 04:15:06 36° SE 04:15:06 36° SE 04:17:02 10° ESE
CZ-4B R/B 3.8 04:10:49 10° NNE 04:12:50 32° N 04:12:50 32° N
Cosmos 2298 Rocket 3.9 04:09:12 10° SSW 04:14:27 89° ESE 04:19:48 10° NNE
STARLINK-56 3.7 04:16:06 58° SSW 04:16:46 72° SSE 04:20:54 10° ENE
ATLAS 2AS CENTAUR R/B 3.1 04:15:49 37° W 04:17:56 45° WSW 04:24:33 10° S
ALOS 3.5 04:13:41 10° NNE 04:18:08 42° E 04:22:34 10° S
Starlink (trailer) 3.7 04:17:39 56° SW 04:18:23 73° SSE 04:22:32 10° ENE
PSLV R/B 4.1 04:14:31 10° NNE 04:18:24 68° ESE 04:22:22 10° S
STARLINK-38 3.7 04:19:18 55° SW 04:20:05 75° SSE 04:24:15 10° ENE
STARLINK-65 3.6 04:20:52 54° SW 04:21:44 76° SSE 04:25:53 10° ENE
Cosmos 1408 Rocket 3.4 04:18:54 10° SSW 04:23:13 81° W 04:27:37 10° N
Cosmos 2016 Rocket 3.9 04:17:35 10° S 04:23:53 87° W 04:30:18 10° N
Cosmos 468 4.4 04:21:40 33° NW 04:24:00 65° WSW 04:29:13 10° S
STARLINK-60 3.3 04:24:24 59° NNE 04:24:24 59° NNE 04:27:44 10° E
Cosmos 1725 Rocket 4.1 04:18:11 10° S 04:24:27 79° E 04:30:48 10° NNE
STARLINK-69 3.6 04:25:44 50° SW 04:26:46 81° SSE 04:30:56 10° ENE
STARLINK-66 3.6 04:27:17 48° SW 04:28:24 82° SSE 04:32:33 10° ENE
STARLINK-41 3.6 04:28:52 46° WSW 04:30:03 83° SSE 04:34:13 10° ENE
Cosmos 1500 Rocket 4.1 04:27:00 10° S 04:31:23 60° E 04:35:46 10° NNE
STARLINK-64 3.5 04:30:29 45° WSW 04:31:43 85° SSE 04:35:53 10° ENE
Cosmos 1238 Rocket 4.4 04:26:01 10° S 04:32:17 61° E 04:37:48 10° NNE
Cosmos 2333 4.3 04:28:09 16° NNW 04:32:56 78° ENE 04:38:43 10° SSE
STARLINK-70 3.5 04:32:05 43° WSW 04:33:23 86° SSE 04:37:33 10° ENE
STARLINK-68 3.5 04:33:49 42° WSW 04:35:10 89° SSE 04:39:20 10° ENE
STARLINK-58 3.5 04:35:15 40° WSW 04:36:40 89° S 04:40:50 10° ENE
Cosmos 1606 2.5 04:35:01 18° NNW 04:37:45 82° W 04:41:34 10° S
USA 234 3.8 04:32:07 10° ENE 04:38:20 48° N 04:42:07 24° WNW
STARLINK-62 3.5 04:37:01 39° WSW 04:38:29 89° NNW 04:42:39 10° ENE
Meteor 2-3 Rocket 4.3 04:32:48 10° S 04:38:29 63° E 04:44:14 10° NNE
Lacrosse 5 2.7 04:36:54 29° NW 04:38:39 37° N 04:43:23 10° ENE
SJ 16-02 3.1 04:41:06 17° NNW 04:41:06 17° NNW 04:42:46 10° N
Cosmos 2322 3.6 04:35:07 17° NNW 04:39:37 84° WSW 04:45:17 10° SSE
STARLINK-63 3.5 04:38:29 37° WSW 04:40:03 89° NW 04:44:13 10° ENE
Cosmos 2219 Rocket 2.6 04:36:08 12° NNW 04:41:28 64° ENE 04:47:07 10° SE
RESURS DK-1 3.9 04:38:06 12° NNW 04:41:30 33° NE 04:45:16 10° ESE
STARLINK 3.5 04:39:49 35° WSW 04:41:30 89° SSE 04:45:40 10° ENE
Cosmos 1766 Rocket 4.0 04:41:26 36° W 04:41:38 36° WNW 04:45:42 10° N
Cosmos 1816 Rocket 4.4 04:35:46 10° NNW 04:42:04 71° W 04:48:14 10° S
Cosmos 494 Rocket 3.9 04:37:52 13° NNW 04:42:34 88° WSW 04:47:47 10° SSE
STARLINK-72 3.5 04:41:34 35° WSW 04:43:16 88° NNW 04:47:27 10° ENE
CZ-4B R/B 3.9 04:38:12 10° NNE 04:43:32 56° ESE 04:48:56 10° S
SJ-12 3.9 04:39:26 10° NNE 04:43:37 89° ESE 04:47:45 10° SSW
Cosmos 1937 Rocket 4.2 04:43:39 29° WNW 04:44:05 29° NW 04:48:36 10° N
Cosmos 1825 2.1 04:42:12 10° SSW 04:45:54 56° WNW 04:49:39 10° N
STARLINK-48 3.7 04:44:48 38° WNW 04:45:58 56° N 04:49:49 10° ENE
STARLINK-59 3.5 04:44:54 33° WSW 04:46:43 84° NNW 04:50:53 10° ENE
STARLINK-57 3.5 04:46:26 31° WSW 04:48:19 83° NNW 04:52:29 10° ENE
Cosmos 2100 Rocket 4.3 04:43:22 10° SW 04:49:07 40° WNW 04:54:54 10° N
STARLINK-52 3.4 04:48:35 37° NW 04:49:43 61° NNE 04:53:13 10° E
Cosmos 1933 3.4 04:47:18 18° NNW 04:50:04 51° W 04:53:57 10° S
Cosmos 2333 Rocket 2.4 04:44:36 11° NNW 04:50:15 76° ENE 04:56:01 10° SE
Tsikada Rocket 4.0 04:43:59 10° NNW 04:50:20 66° W 04:56:33 10° S
Lacrosse 5 rocket 0.9 04:50:17 37° WNW 04:51:34 72° SW 04:55:08 10° SE
Cosmos 1269 Rocket 4.0 04:46:17 10° NNW 04:51:34 87° WSW 04:56:52 10° SSE
STARLINK-28 3.5 04:49:43 29° WSW 04:51:44 80° NNW 04:55:54 10° ENE
SL-08 R/B 4.4 04:46:14 10° SSW 04:52:17 65° WNW 04:58:21 10° N
STARLINK-75 3.5 04:51:00 30° W 04:53:00 76° NNW 04:57:09 10° ENE
Abrixas rocket 2.4 04:52:39 33° SW 04:53:44 56° S 04:56:42 10° E
CZ-2C R/B 3.1 04:49:35 10° N 04:53:45 29° WNW 04:55:31 23° W
STARLINK-53 3.5 04:51:50 28° WSW 04:53:56 79° NNW 04:58:07 10° ENE
COSMO-SKYMED 1 2.9 04:50:17 10° S 04:54:24 42° W 04:57:49 14° NNW
STARLINK-54 3.5 04:52:52 27° WSW 04:55:02 78° NNW 04:59:12 10° ENE
Transit 2A Rocket 4.5 04:52:48 22° NW 04:55:37 79° SW 05:00:08 10° SSE
Cosmos 1315 Rocket 3.7 04:51:40 10° N 04:55:37 52° ENE 04:59:37 10° SSE
Meteor 1-31 Rocket 3.9 04:54:13 10° N 04:56:43 24° NW 04:56:43 24° NW
STARLINK-37 3.5 04:57:04 25° W 04:59:23 75° NNW 05:03:32 10° ENE
COSMOS 2455 4.3 04:59:42 16° WSW 04:59:42 16° WSW 05:02:55 10° SW
STARLINK-55 3.5 04:57:34 25° W 04:59:56 76° NNW 05:04:05 10° ENE
USA 116 3.6 04:56:41 10° S 05:00:00 50° W 05:03:39 11° NNW
STARLINK-34 3.6 04:59:17 24° W 05:01:42 74° NNW 05:05:52 10° ENE
STARLINK-29 3.2 05:00:31 29° WNW 05:02:08 70° NNE 05:05:37 10° ESE
Cosmos 1484 Rocket 3.1 04:58:26 10° N 05:02:16 43° WNW 05:06:04 10° SW
MOS 1-B 4.3 04:57:02 10° NNE 05:02:48 68° WNW 05:08:32 10° SSW
STARLINK-81 3.6 05:00:37 23° WSW 05:03:09 76° NNW 05:07:19 10° ENE
STARLINK-24 3.6 05:00:53 23° W 05:03:22 73° NNW 05:07:32 10° ENE
NOSS 0 Rocket 4.4 04:57:55 10° NNW 05:04:08 62° NE 05:10:19 10° SE
Cosmos 1125 Rocket 3.4 05:00:25 10° SSW 05:05:40 71° WNW 05:10:57 10° NNE
STARLINK-77 3.6 05:03:47 21° W 05:06:26 74° NNW 05:10:36 10° ENE
FALCON 9 DEB 3.1 05:05:29 26° WNW 05:07:17 78° NNE 05:10:43 10° ESE
ATLAS CENTAUR R/B 2.2 05:04:27 18° WSW 05:07:42 41° NW 05:12:09 10° NNE
STARLINK-25 3.6 05:05:21 21° W 05:08:06 73° NNW 05:12:17 10° ENE
Cosmos 1408 3.7 05:08:21 23° WNW 05:08:21 23° WNW 05:11:20 10° NNW
STARLINK-71 3.6 05:07:14 20° W 05:10:00 70° NNW 05:14:08 10° ENE
Cosmos 1802 Rocket 4.5 05:04:42 10° SW 05:10:37 38° WNW 05:16:32 10° N
STARLINK-79 3.6 05:08:37 19° W 05:11:29 71° NNW 05:15:37 10° ENE
TIMED 4.5 05:08:36 10° NNW 05:13:00 89° W 05:17:22 10° SSE
STARLINK-78 3.6 05:10:12 19° W 05:13:08 70° NNW 05:17:17 10° ENE
Cosmos 1782 2.7 05:09:08 10° NNW 05:13:09 80° W 05:17:07 10° S
Cosmos 2082 Rocket 3.9 05:12:46 13° NW 05:14:14 14° NNW 05:17:10 10° N
SL-4 R/B 4.2 05:12:32 13° WSW 05:14:18 16° SW 05:17:08 10° SSW
H-2A R/B 4.3 05:11:40 10° NNE 05:15:10 38° E 05:18:38 10° SSE
Cosmos 372 Rocket 4.5 05:10:30 10° WSW 05:15:13 36° WNW 05:19:58 10° N
STARLINK-49 3.6 05:13:22 17° W 05:16:26 69° NNW 05:20:36 10° ENE
SL-16 R/B 4.0 05:11:45 10° NNW 05:16:31 26° NE 05:21:16 10° E
Meteor 2-6 Rocket 4.4 05:11:41 10° N 05:17:08 74° ENE 05:22:38 10° SSE
PAYLOAD B 4.2 05:12:36 10° N 05:18:03 64° WNW 05:23:28 10° SSW
STARLINK-27 3.6 05:15:00 17° W 05:18:07 68° NNW 05:22:16 10° ENE
Cosmos 1151 Rocket 4.4 05:17:40 17° WNW 05:18:23 18° W 05:21:21 10° SW
STARLINK-74 3.6 05:16:35 16° W 05:19:47 67° NNW 05:23:56 10° ENE
STARLINK-39 3.6 05:18:09 16° W 05:21:26 66° NNW 05:25:34 10° ENE
CZ-4B DEB 4.3 05:16:36 10° N 05:21:56 54° WNW 05:27:15 10° SW
NOAA 6 4.0 05:17:25 10° NNE 05:22:33 73° WNW 05:27:37 10° SSW
STARLINK 3.7 05:19:47 15° W 05:23:07 66° NNW 05:27:16 10° ENE
STARLINK-42 3.7 05:20:27 15° W 05:23:48 64° NNW 05:27:56 10° ENE
Cosmos 1437 3.8 05:21:34 10° WSW 05:24:01 22° WNW 05:26:29 10° NNW
STARLINK-21 3.7 05:23:02 14° W 05:26:30 64° NNW 05:30:39 10° ENE
Cosmos 1633 3.3 05:24:01 10° S 05:27:34 58° E 05:31:10 10° NNE
Cosmos 1400 Rocket 3.7 05:24:16 10° NNW 05:27:49 29° W 05:31:18 10° SSW
STARLINK-45 3.7 05:24:56 14° W 05:28:25 62° N 05:32:32 10° ENE
COSMOS 2487 4.0 05:28:39 15° WNW 05:29:37 17° NW 05:31:57 10° N
Cosmos 2233 Rocket 4.1 05:23:29 10° SSW 05:29:40 58° WNW 05:35:56 10° N
STARLINK-76 3.7 05:27:48 13° W 05:31:29 62° NNW 05:35:37 10° ENE
Timation 2 Rocket 3.9 05:26:07 10° SSW 05:32:09 86° ESE 05:38:10 10° NNE
STARLINK 3.7 05:29:24 12° W 05:33:09 62° NNW 05:37:16 10° ENE
Okean O Rocket 1.8 05:30:32 10° N 05:34:43 47° WNW 05:38:53 10° SW
STARLINK-32 3.7 05:30:59 12° W 05:34:48 61° NNW 05:38:55 10° ENE
Cosmos 2360 Rocket 3.5 05:32:17 11° NW 05:36:05 21° W 05:40:12 10° SSW
Cosmos 2228 Rocket 4.1 05:32:16 10° NNW 05:36:08 27° W 05:39:59 10° SW
STARLINK-40 3.7 05:32:34 11° W 05:36:27 61° N 05:40:34 10° ENE
Gbstr 26 Del rocket 2.7 05:34:24 13° WNW 05:37:43 69° N 05:41:32 10° E
STARLINK-44 3.8 05:34:11 11° W 05:38:08 60° N 05:42:15 10° ENE
STARLINK-36 3.8 05:35:48 10° W 05:39:49 60° N 05:43:57 10° ENE
Cosmos 1862 3.8 05:36:07 10° S 05:40:01 64° E 05:43:58 10° NNE
Cosmos 1707 Rocket 3.6 05:35:36 10° NNW 05:40:04 71° W 05:44:31 10° S
Helios 1A Rocket 3.3 05:36:21 10° N 05:40:11 39° WNW 05:43:59 10° SW
STARLINK-61 3.8 05:37:06 11° W 05:40:50 54° N 05:44:49 10° ENE
COSMOS 2428 3.0 05:36:26 10° NW 05:41:57 51° WSW 05:47:27 10° S
STARLINK-80 3.8 05:39:00 12° WNW 05:42:30 54° N 05:46:17 10° E
Cosmos 2237 Rocket 2.4 05:36:59 10° NNW 05:42:42 75° ENE 05:48:21 10° SE
Cosmos 1805 Rocket 3.6 05:41:32 10° SSW 05:45:47 55° WNW 05:50:05 10° N
STARLINK-35 3.8 05:42:22 10° W 05:46:28 58° N 05:50:35 10° ENE
STARLINK-26 3.8 05:42:52 10° W 05:46:55 56° N 05:50:58 10° ENE
STARLINK-51 3.8 05:44:03 10° W 05:48:09 58° N 05:52:15 10° ENE
BREEZE-M DEB (TANK) 1.4 05:47:04 10° W 05:49:10 57° SSW 05:51:25 10° ESE
STARLINK-43 3.6 05:45:33 10° WNW 05:49:14 62° NNE 05:52:56 10° E
STARLINK-30 3.8 05:45:42 10° W 05:49:48 57° N 05:53:54 10° ENE
CZ-4C R/B 3.8 05:43:41 10° NW 05:49:49 37° NNE 05:56:52 10° E
STARLINK-33 3.8 05:47:24 10° W 05:51:30 57° N 05:55:36 10° ENE
STARLINK-50 3.8 05:49:04 10° W 05:53:10 57° N 05:57:17 10° ENE
ALOS 3.1 05:51:26 10° N 05:55:24 28° WNW 05:59:22 10° WSW
Radarsat Rocket 3.9 05:50:34 10° NNE 05:56:21 68° WNW 06:02:17 10° SSW
STARLINK-56 3.9 05:52:24 10° W 05:56:29 56° N 06:00:35 10° ENE
Starlink (trailer) 3.9 05:54:02 10° W 05:58:09 56° N 06:02:15 10° ENE
SMAP 3.0 05:54:43 10° NNE 05:59:24 76° WNW 06:04:03 10° SSW
STARLINK-38 3.9 05:55:45 10° W 05:59:50 56° N 06:03:56 10° ENE
Cosmos 1464 Rocket 4.0 05:54:57 10° SSW 06:01:16 78° W 06:07:31 10° N
